{"data":{"norad_id":63789,"epoch":"2026-09-20T16:02:57.132384Z","epoch_age_seconds":135245,"freshness":"FRESH","line1":"1 63789U 25091Q   26263.66871681  .00013702  00000+0  50649-3 0  9991","line2":"2 63789  43.0085  31.2165 0001927 295.9550  64.1103 15.27581609 78720","mean_motion":15.27581609,"eccentricity":0.0001927,"inclination_deg":43.0085,"raan_deg":31.2165,"arg_perigee_deg":295.955,"mean_anomaly_deg":64.1103,"bstar":0.00050649,"rev_number":7872,"period_min":94.266649422591,"perigee_km":481.72212848675,"apogee_km":484.36642775134,"semimajor_km":6861.181278119,"source":"CELESTRAK","updated_at":"2026-09-21T09:00:35.100519Z"}}